Погода в Капо-Ватикано

Италия     38°37′20″N   15°50′04″E
темп.,
°C
ветер,
м/с
пор.,
м/с
влажн.,
%
обл.,
%
осадки,
мм/ч
давл.,
гПа
погр.,
м
1 марта, пн
пн101:00+14ю34740 0.0 1027328
04:00+14ююз45760 0.0 1027401
07:00+14ююз347621 0.0 1028319
10:00+14юз347520 0.0 1028487
13:00+14з447912 0.1 1027493
16:00+14зсз44780 0.1 1027557
19:00+14з33780 0.3 1028471
22:00+14зюз33780 0.1 1029577
2 марта, вт
вт201:00+14зюз44810 0.2 1029522
04:00+13юз348121 0.4 1029380
07:00+13юз448120 0.6 1030357
10:00+13юз327811 0.1 1030406
13:00+14зсз33756 0.1 1030321
16:00+14с11690 0.0 1030349
19:00+14юв11710 0.0 1031270
22:00+13ююв22740 0.0 1032220
3 марта, ср
ср301:00+12вюв22720 0.0 1032165
04:00+12вюв33610 0.0 1031149
07:00+12вюв33540 0.0 1031155
10:00+13зюз01480 0.0 1032145
13:00+13с22540 0.0 1031141
16:00+14ссв33610 0.0 1029257
19:00+14всв11590 0.0 1030246
22:00+13ююз33618 0.0 1029323
4 марта, чт
чт401:00+12юв22635 0.0 1029222
04:00+12вюв226458 0.0 1027183
07:00+12юв216333 0.0 1026193
10:00+12ююз116196 0.0 1026181
13:00+13с225687 0.0 1024138
16:00+13ссв3358100 0.0 1022220
19:00+13юз125799 0.0 1022364
22:00+13ююз235966 0.0 1021290
5 марта, пт
пт501:00+12юв336483 0.0 1020307
04:00+12вюв2366100 0.0 1019345
07:00+12юв2262100 0.0 1018225
10:00+13ююв1261100 0.0 1018339
13:00+15юз4566100 0.0 1017550
16:00+15юз6872100 0.0 1016363
19:00+14юз5576100 0.0 1017358
22:00+14ю237318 0.0 1018235